COSMOS 2251 DEB, 36539

Orbit data source: Space-Track

COSMOS 2251 DEB, 36539 is space debris in LEO originally from a launch on Wed, 16 Jun 1993 UTC launched from the Plesetsk Missile And Space Complex (PKMTR). The debris from Iridium 33, an American commercial communications satellite, has been tracked extensively since its accidental collision with the defunct Russian satellite Cosmos 2251 in 2009. This event, occurring at high speed in low Earth orbit (LEO), generated thousands of pieces of space debris, significantly increasing the risk of further collisions. The Iridium 33 debris cloud has impacted space traffic management and orbital debris mitigation strategies, making it a subject of ongoing study in space situational awareness.

Loading next visibility...
Identifier
36539, 1993-036BCZ
Orbit
LEO
Country
Flag of CISCIS
Related business
Manufacturer
Unknown
Mission
Spacecraft
Bus & Motor
Unknown
Mass
Unknown
Launch date (UTC)
1993-06-16 (33 years ago)
Launch vehicle
Unknown
Launch site
Plesetsk Missile And Space Complex (PKMTR)
Object type
Payload
Rocket body
Debris
Shape & HBR
Unknown shape, 0.1 m
Radar Cross Section
Small (<0.1 m²)

Expand to show TLE details & history
Last TLE update: 18 hours ago

TLE from 18 hours ago
0 COSMOS 2251 DEB
1 36539U 93036BCZ 26037.19206686  .00004741  00000-0  99436-3 0  9993
2 36539  74.0242 309.3637 0025543  77.3188 283.0831 14.59753339847565
Epoch: 2026-02-06T04:36Z
TLE epoch observation values (Epoch: 2026-02-06T04:36:34.576Z)
Latitude
-0.00001°
Longitude
103.88616°
Altitude
692.564 km
Speed
7.512 km/s
True Right ascension
20h 37m 27s
True Declination
0° 00' 00"
Sunlit
Object was in daylight at epoch
Visualization orbit readout
Latitude
Unknown
Longitude
Unknown
Altitude
Unknown
Speed
Unknown
Apparent Right ascension
Unknown
Apparent Declination
Unknown
Sunlit
N/A
Visualization observer readout
Local Sidereal Time
00:49:56
Azimuth
Unknown
Elevation
Unknown
Doppler factor
Unknown
Orbital elements
Apogee altitude
709.627 km
Perigee altitude
673.511 km
Semi-major axis
7,069.706 km
Eccentricity
0.00255
Inclination
74.0242°
RAAN
309.3637°
Arg. of periapsis
77.3188°
True anomaly
282.79779°
Mean anomaly
283.0831°
Eccentric anomaly
282.94047°
Mean motion
3.65125 °/min
Orbital period
98.6 mins
BSTAR
0.00099436
Loading maneuver chart data...
Computing Atmospheric mass density...

Documentation

Showing up to 5 results
|